User: anonymous   Login
Location: Bad Salzschlirf
(50.3750°N, 9.3000°E)
Time: 03:20:50
(UTC+02:00)
Language:

ISS - Orbit

View from above orbital plane
View from above orbital plane
View from above satellite
View from above satellite

Ground track
Ground track

The orbit data is extracted from the following two-line orbital elements,

1 25544U 98067A   24111.81451431  .00039296  00000-0  67977-3 0  9994
2 25544  51.6401 239.8910 0004710  85.6917  78.9823 15.50541366449649
Epoch (UTC): 20 April 2024 19:32:54
Eccentricity: 0.0004710
inclination: 51.6401°
perigee height: 412 km
apogee height: 418 km
right ascension of ascending node: 239.8910°
argument of perigee: 85.6917°
revolutions per day: 15.50541366
mean anomaly at epoch: 78.9823°
orbit number at epoch: 44964

The dashed part of the orbit path shows where the satellite is in the earth's shadow,  

DLR